Miscellaneous Local Product
Issued by NWS Hastings, NE

Home | Current Version | Previous Version | Text Only | Print | Product List | Glossary Off
Versions: 1 2 3 4 5 6 7 8 9 10 11 12 13 14 15 16 17 18 19 20 21 22 23 24 25 26 27 28 29 30 31 32 33 34 35 36 37 38 39 40 41 42 43 44 45 46 47 48 49 50

000
AXUS43 KGID 290002
MISGRI

GID CWA HOURLY WEATHER ROUNDUP
NATIONAL WEATHER SERVICE HASTINGS NE
700 PM CDT THU MAY 28 2015

NOTE: "FAIR" INDICATES FEW OR NO CLOUDS BELOW 12,000 FEET WITH NO
SIGNIFICANT WEATHER AND/OR OBSTRUCTIONS TO VISIBILITY.

...SOUTH CENTRAL NEBRASKA...

CITY           SKY/WX    TMP DP  RH WIND       PRES   REMARKS
GRAND ISLAND   CLOUDY    76  59  55 S10       29.87F
HASTINGS       PTSUNNY   75  60  59 S10       29.88F
KEARNEY        CLOUDY    75  57  53 S17       29.88S
ORD            CLOUDY    74  59  59 S8        29.86F
YORK           PTSUNNY   77  59  53 S12       29.88F
AURORA         PTSUNNY   77  57  50 S10       29.86F
LEXINGTON      CLOUDY    74  61  64 S15       29.87F
HOLDREGE       CLOUDY    74  59  58 S16       29.88F
HEBRON         SUNNY     77  60  55 S12       29.89F

...NEBRASKA PANHANDLE...

CITY           SKY/WX    TMP DP  RH WIND       PRES   REMARKS
CHADRON        CLOUDY    71  54  54 NW3       29.91R
ALLIANCE       CLOUDY    67  54  63 NE12      29.92R
SCOTTSBLUFF    PTSUNNY   71  54  54 NE10G21   29.91R
SIDNEY         CLOUDY    55  53  93 S5        29.96S

...WESTERN AND NORTH CENTRAL NEBRASKA...

CITY           SKY/WX    TMP DP  RH WIND       PRES   REMARKS
VALENTINE      CLOUDY    70  55  59 S14       29.87R
AINSWORTH      LGT RAIN  69  56  62 CALM      29.87F
ONEILL         MOSUNNY   78  58  51 S15G22    29.85S
BROKEN BOW     CLOUDY    75  60  59 S10       29.86F
IMPERIAL       TSTM      56  52  86 NW24G41   30.00R
NORTH PLATTE   PTSUNNY   72  58  61 S15G22    29.85F
MCCOOK         CLOUDY    72  60  66 SE15      29.88R

...EASTERN NEBRASKA...

CITY           SKY/WX    TMP DP  RH WIND       PRES   REMARKS
NORFOLK        CLOUDY    75  64  68 SE16      29.87F
SO SIOUX CITY  PTSUNNY   72  61  68 S17       29.88F
TEKAMAH        PTSUNNY   71  66  84 SE15      29.90F
COLUMBUS       MOSUNNY   75  63  64 SE14G20   29.88F
ALBION         MOSUNNY   78  55  45 S10G21    29.86F
OMAHA EPPLEY   CLOUDY    72  63  73 SE17      29.92F
OFFUTT AFB     PTSUNNY   72  64  76 SE16      29.91F
MILLARD        PTSUNNY   74  64  72 S12G18    29.91S
LINCOLN        PTSUNNY   76  66  71 SE13      29.90S
NEBRASKA CITY  CLOUDY    70  63  77 S7        29.94S
BEATRICE       PTSUNNY   75  66  72 S12       29.90F
FALLS CITY     CLOUDY    73  63  70 S10       29.93S

...NORTHERN KANSAS...

CITY           SKY/WX    TMP DP  RH WIND       PRES   REMARKS
GOODLAND       RAIN      58  51  78 VRB3      29.99R
HILL CITY      LGT RAIN  70  54  56 SW12G21   29.89F
NORTON         CLEAR     70  57  64 E8        29.87F
SMITH CENTER   MOSUNNY   72  63  73 SE6       29.89S
HAYS           CLOUDY    72  61  68 SE6       29.89S
RUSSELL        PTSUNNY   74  66  76 S10       29.89R
CONCORDIA      SUNNY     75  63  66 S10       29.88F
SALINA         MOSUNNY   77  65  66 S16       29.88F
TOPEKA         SUNNY     76  64  66 SE9       29.93F



USA.gov is the U.S. government's official web portal to all federal, state and local government web resources and services.